GFSWCAN_850_rhum_063.txt.gz
RH
98 95 96 96 93 94 98 97 99 96 89 88 99 99 99 99 98 99 99 99 98 99 91 76 69 72 75 72 86 81 91 95 97 93 88 81 83 67 63 57 71 79 82 85 83 93 82 53 58 58 53 53 58 57
93 92 93 94 98 99 100 100 97 98 100 88 82 84 98 99 99 99 100 99 98 100 100 89 79 70 61 55 65 75 67 76 79 81 82 76 82 82 66 62 69 63 72 77 75 72 59 62 64 65 74 78 75 74
97 99 99 100 100 98 92 90 91 99 97 99 93 96 86 97 99 99 99 99 100 100 98 100 97 84 77 69 67 77 70 59 63 58 78 79 74 74 78 69 57 56 64 70 65 49 59 64 72 82 75 85 83 74
100 91 89 90 90 86 89 91 92 88 90 98 96 96 96 93 99 99 100 99 100 99 99 98 74 85 81 81 87 81 68 72 63 64 77 84 74 66 72 59 63 51 64 64 67 60 68 81 98 89 78 76 73 68
97 96 94 92 97 93 91 96 96 92 87 92 100 96 100 98 98 99 99 100 99 90 98 98 99 79 71 85 77 75 77 86 73 79 93 84 82 84 83 81 73 80 79 78 69 92 91 88 93 97 90 86 85 79
98 97 98 92 94 98 95 89 91 96 98 93 99 100 100 97 99 99 99 100 99 100 100 100 94 92 85 83 84 81 87 81 76 71 96 78 68 69 95 85 79 85 90 94 90 98 85 93 100 99 100 98 96 90
91 89 91 99 100 96 97 100 92 98 98 96 100 99 99 100 99 97 89 75 90 99 99 100 96 100 95 96 97 96 89 90 90 94 83 74 74 85 92 82 86 97 96 88 93 96 94 99 99 99 98 100 100 97
91 90 89 100 97 97 98 98 98 95 100 98 99 100 99 100 99 94 92 86 88 99 99 99 99 96 95 99 98 93 97 97 100 99 100 86 84 92 99 92 90 95 96 96 100 99 100 100 100 100 100 97 99 100
100 98 99 100 99 99 100 98 99 98 96 98 100 100 100 99 99 98 90 100 99 99 92 98 96 93 88 88 92 95 91 100 100 99 100 94 100 99 94 92 95 100 100 100 99 98 100 100 99 99 98 97 98 100
100 99 99 100 98 97 100 99 99 100 100 100 100 98 99 100 94 98 100 100 100 99 99 94 99 100 90 100 100 99 99 98 100 99 99 96 94 96 98 98 100 100 100 100 100 94 94 97 96 96 95 95 96 96
99 99 100 99 99 99 99 100 100 99 100 99 99 100 99 100 99 98 98 91 98 98 99 98 99 99 100 98 99 98 98 96 94 93 96 91 90 88 96 98 100 100 100 100 100 100 98 97 97 96 97 95 95 96
98 100 100 99 97 96 93 93 95 87 86 94 96 99 99 98 95 88 96 98 95 96 99 100 99 100 100 99 99 99 99 97 96 95 91 91 90 93 96 100 100 100 100 100 100 99 99 97 96 95 96 96 95 95
94 99 100 99 100 100 99 84 76 74 71 69 64 81 74 76 88 87 95 95 96 96 98 100 100 100 97 83 96 92 91 96 83 92 90 90 90 95 100 100 100 100 100 99 98 97 97 96 96 95 95 95 95 95
82 73 70 73 96 91 74 80 71 66 47 51 68 89 89 93 94 96 96 96 96 97 98 100 99 93 88 91 96 85 94 87 92 92 91 88 97 100 100 98 99 97 96 96 96 96 96 96 96 96 95 96 96 96
72 74 75 56 50 52 53 53 50 56 48 73 73 99 96 96 96 96 97 97 96 97 99 88 80 79 90 90 90 84 86 93 88 91 91 97 98 97 98 100 97 96 95 95 96 96 96 96 95 96 96 96 95 95
75 62 59 59 63 55 44 40 43 47 66 74 87 92 92 93 94 93 96 96 97 97 82 71 91 88 96 87 84 96 82 90 93 94 100 98 97 97 97 96 96 95 95 95 95 95 96 95 95 95 96 95 95 96
76 60 56 49 42 47 50 39 47 69 80 84 96 96 98 96 96 96 96 94 96 86 98 87 91 94 77 85 92 90 94 94 100 100 99 97 96 96 96 96 96 96 96 95 96 96 95 96 96 96 94 96 96 95
74 60 58 63 54 38 38 48 62 74 95 95 92 97 96 96 96 96 96 97 94 94 87 94 77 87 94 90 91 92 96 98 96 96 96 96 96 95 95 95 95 95 95 95 95 95 96 95 94 93 93 92 88 87
84 77 63 56 41 41 53 60 57 94 96 93 92 94 95 96 97 97 96 95 85 81 82 81 86 90 92 93 93 97 97 97 98 97 96 96 96 96 95 95 96 96 95 95 96 94 90 85 85 84 78 72 62 70
76 64 54 46 41 48 70 69 60 77 90 90 91 97 98 97 95 90 84 87 82 87 85 88 92 96 97 97 93 92 93 94 90 92 97 97 96 96 96 96 95 95 95 94 88 86 82 75 74 74 69 64 62 60
66 58 52 44 58 67 78 76 79 73 88 85 86 93 96 90 87 86 84 76 82 90 89 99 100 98 97 97 96 94 95 96 93 91 91 94 95 95 95 94 79 70 64 61 54 56 53 54 61 63 55 46 49 53
57 50 51 48 54 57 60 72 76 82 76 85 95 78 86 85 85 78 68 88 97 100 97 99 99 99 96 96 97 95 95 95 94 94 94 95 92 72 55 50 46 41 44 49 55 58 64 72 78 74 62 55 58 53
42 43 50 55 65 76 97 96 93 92 92 95 78 72 81 77 73 66 94 95 97 98 98 98 97 96 92 97 94 95 97 95 91 83 71 58 47 48 48 48 50 49 48 53 58 61 65 75 83 83 72 68 66 60
48 57 65 70 69 98 80 80 72 79 80 90 92 97 90 76 66 81 98 99 99 98 97 97 95 93 95 96 84 78 77 71 55 52 58 56 50 52 57 55 56 56 57 62 66 63 59 60 63 63 59 57 53 52
52 86 77 92 77 82 91 93 93 90 100 97 98 100 95 71 94 98 98 98 96 96 96 96 95 89 76 77 80 80 81 78 72 67 69 75 71 63 63 62 58 58 60 59 64 61 61 60 59 58 55 52 52 53
98 99 95 99 97 91 96 100 98 99 98 100 100 92 74 90 94 100 96 95 96 95 92 86 79 82 86 90 90 93 89 85 79 68 64 69 70 68 66 66 63 53 51 52 56 57 56 58 59 59 56 57 55 57
100 99 93 94 91 88 94 88 86 92 100 100 98 94 88 99 100 96 99 98 90 90 91 92 92 88 77 78 77 65 55 49 44 45 48 47 42 35 32 36 38 41 44 47 49 51 53 54 54 53 54 56 62 70
85 83 90 93 88 89 100 100 100 100 97 96 82 99 98 95 96 98 98 98 94 92 90 80 80 82 82 71 69 58 41 49 49 51 54 55 53 46 35 40 39 39 43 46 51 57 60 60 63 65 68 69 70 71
83 80 68 99 93 97 100 100 100 100 100 88 98 100 100 100 99 100 100 100 100 96 86 77 76 80 80 74 56 39 36 46 55 53 53 46 51 60 43 46 42 41 40 43 46 49 52 51 58 64 63 63 64 64
88 80 90 94 99 100 100 100 100 100 99 99 98 100 100 100 100 100 100 100 100 99 95 93 84 83 80 54 37 35 38 40 41 32 32 34 36 38 42 43 41 41 41 43 46 47 48 51 51 50 53 53 53 54
83 80 90 95 100 99 99 100 99 94 94 93 90 94 99 99 100 100 100 100 100 97 93 91 91 90 84 61 42 32 35 35 32 32 33 35 36 38 40 41 42 42 41 41 43 45 47 48 48 48 48 47 45 41
80 84 90 99 98 98 100 82 82 85 85 86 90 88 90 89 97 100 100 99 99 97 96 94 88 84 62 39 30 31 31 31 33 34 36 39 42 43 44 43 42 41 41 42 44 44 44 44 44 43 38 34 33 34
86 82 82 96 100 100 95 89 89 93 93 96 97 96 95 93 99 100 98 99 99 98 95 92 80 36 29 31 33 35 35 36 37 39 41 43 45 46 44 42 42 43 43 42 43 43 42 41 38 33 32 33 36 38

GFSWCAN_850_rhum_069.txt.gz
RH
83 84 92 96 98 92 89 90 93 96 98 97 98 99 99 99 87 78 62 92 96 97 75 62 58 63 48 52 89 81 89 99 99 99 78 58 59 50 42 43 55 52 58 59 52 55 58 37 34 47 53 46 50 47
87 90 91 90 94 93 92 93 94 98 99 99 98 98 99 98 99 85 95 90 100 99 93 88 62 56 73 82 93 97 81 96 83 71 67 59 54 56 39 48 42 53 38 45 39 42 42 46 56 58 59 57 58 59
99 99 99 100 98 98 98 98 99 88 91 97 100 99 99 99 99 98 96 92 100 100 98 90 75 77 73 76 85 94 67 63 65 70 94 69 70 43 58 48 41 34 39 44 47 41 50 54 57 62 62 64 64 64
99 100 99 96 93 98 100 98 91 93 93 89 99 100 99 98 99 100 99 95 98 99 98 68 66 67 82 79 80 80 95 89 81 92 73 71 65 38 55 68 40 45 35 31 32 41 45 53 65 73 70 71 71 72
99 94 97 94 91 91 90 93 94 91 93 95 94 100 99 96 99 99 99 98 98 81 71 55 61 75 69 82 85 88 98 94 98 95 79 71 51 52 38 45 43 29 45 42 58 64 60 58 73 79 75 78 80 78
98 94 97 96 98 94 90 89 96 94 87 93 99 99 99 94 99 99 99 99 97 82 96 98 62 72 82 74 76 93 99 100 98 99 81 62 56 57 62 56 56 58 63 66 63 70 71 77 87 88 87 86 89 87
98 95 98 98 100 100 93 94 96 98 90 90 100 99 94 96 98 98 96 94 97 99 99 80 73 79 68 68 76 88 99 98 99 98 86 61 57 58 58 63 88 67 65 72 75 75 80 87 96 94 92 92 92 92
99 99 96 98 98 95 97 94 98 97 93 90 100 100 100 97 99 99 92 84 93 100 99 98 83 88 80 78 86 95 99 99 100 98 86 65 54 64 90 80 75 76 72 75 76 74 93 97 96 97 96 93 97 100
99 99 97 99 100 99 95 88 100 95 99 94 99 100 99 99 100 97 100 100 100 97 98 98 96 100 96 91 98 99 100 100 99 95 92 75 71 95 90 82 87 89 88 84 78 73 81 88 90 92 93 94 93 96
99 99 99 99 99 99 99 100 99 99 100 100 100 98 99 99 95 100 100 99 99 99 95 84 87 98 81 79 95 97 97 88 97 98 98 100 90 82 74 77 86 88 86 84 83 84 87 88 93 94 98 98 98 100
99 98 97 100 99 100 100 99 100 99 100 99 99 99 100 99 98 98 98 98 98 100 82 83 83 96 96 77 98 87 92 79 72 89 90 90 88 77 76 76 82 88 88 88 89 93 97 98 99 98 100 100 100 100
99 99 100 99 99 99 100 100 100 99 99 95 97 100 98 97 99 97 99 91 70 72 82 88 93 81 100 97 88 91 88 87 86 78 93 92 79 73 78 82 88 93 93 96 99 100 100 100 100 100 100 100 100 98
99 99 99 99 99 100 98 98 83 88 91 90 84 94 98 87 98 85 84 80 83 91 99 99 99 99 99 99 96 95 99 92 76 93 88 82 77 84 91 91 93 97 99 98 100 100 100 100 100 100 100 100 98 96
99 100 97 100 100 100 89 86 88 84 62 74 77 88 86 86 80 83 93 95 98 99 99 95 95 87 99 98 100 94 92 93 91 87 87 85 88 93 97 99 97 99 96 100 100 100 100 100 100 96 95 95 95 95
100 98 97 88 90 93 90 86 64 53 68 73 67 86 82 85 88 94 99 99 100 98 99 96 94 81 93 96 82 84 91 85 82 88 86 86 92 96 97 100 100 100 100 100 100 100 100 100 97 96 96 95 95 95
80 99 86 83 78 75 69 64 81 66 77 80 83 84 85 91 92 93 98 97 97 98 98 93 96 94 91 81 84 87 75 83 86 83 89 93 98 98 95 98 100 100 100 100 100 100 100 96 96 95 96 95 95 95
80 58 61 73 79 76 44 45 49 75 79 77 85 96 94 89 92 95 98 98 96 99 92 72 87 90 62 78 82 77 87 87 86 92 95 98 98 100 100 100 100 100 100 100 100 100 97 95 97 99 100 100 100 98
98 56 48 42 43 41 41 63 71 72 81 88 81 91 93 96 94 96 99 95 88 76 71 82 60 78 81 82 83 85 89 94 97 97 98 100 100 100 100 100 100 100 100 100 100 100 100 97 100 100 100 100 99 100
82 59 53 49 46 58 69 73 69 75 87 93 95 94 94 98 100 99 96 85 76 72 70 64 74 80 83 81 84 89 92 93 93 98 100 100 100 100 100 100 100 100 100 100 100 100 100 100 98 91 90 90 89 96
69 59 53 50 58 66 68 72 69 70 75 88 92 90 89 93 98 98 96 82 70 68 73 76 82 89 88 94 94 94 94 94 91 92 99 100 100 100 100 100 100 100 100 100 100 95 91 93 99 100 99 99 99 100
74 51 55 72 71 75 70 67 69 71 75 80 85 79 86 88 90 90 83 77 75 80 79 89 93 99 98 98 97 96 98 98 96 95 90 98 100 100 100 100 100 97 93 94 90 95 98 95 96 100 100 100 100 100
58 56 76 65 68 69 73 72 70 71 77 78 72 70 79 82 81 81 71 74 82 93 93 93 95 97 99 98 100 100 100 97 92 97 95 100 99 98 96 94 89 96 96 98 98 100 100 100 100 100 100 100 100 100
48 53 61 67 82 77 85 94 77 75 77 72 67 65 70 73 70 66 71 79 91 97 97 96 100 100 100 100 100 100 100 95 96 100 98 93 95 98 94 95 98 98 95 94 96 100 100 86 84 100 96 100 100 100
44 48 71 92 78 89 85 73 62 64 64 63 62 72 73 70 68 65 75 76 93 96 98 100 99 100 100 97 94 96 93 92 94 100 91 84 85 89 92 94 100 100 99 96 100 100 100 100 84 100 100 100 100 100
59 81 92 86 80 75 74 75 70 66 75 68 73 73 75 69 71 71 74 83 90 94 97 96 93 94 96 97 96 95 91 87 85 92 97 94 95 92 93 94 100 100 97 100 100 100 100 100 100 100 100 100 100 100
83 93 82 78 75 70 65 77 76 73 73 77 76 70 74 69 73 80 72 88 93 98 100 97 96 89 85 86 89 92 98 92 90 94 94 94 96 99 96 92 90 100 99 99 100 100 100 100 100 100 100 100 95 65
82 85 82 85 77 73 76 74 68 71 75 78 72 71 68 76 81 79 96 98 98 98 99 100 96 92 95 100 96 77 57 42 56 59 39 34 35 34 73 100 100 98 70 60 95 100 100 100 100 100 100 100 100 100
81 81 80 88 82 76 78 75 76 79 76 70 60 76 75 73 80 96 99 99 100 100 100 100 100 100 100 84 61 46 32 32 34 35 37 46 38 38 32 31 33 34 40 40 59 49 84 100 100 100 100 100 100 100
83 83 69 81 74 78 82 79 78 85 88 77 71 73 80 93 100 100 100 100 100 100 95 82 74 68 63 61 51 55 81 93 100 76 88 91 100 100 44 46 53 42 47 60 62 47 47 56 64 71 74 95 95 79
87 85 76 76 77 82 91 94 95 100 97 94 93 97 99 100 100 100 100 100 100 100 100 98 99 100 95 84 34 33 32 33 35 45 100 100 100 56 45 51 50 49 40 45 56 77 62 57 64 71 84 90 100 100
84 81 75 75 81 91 97 100 98 97 98 94 92 90 96 100 100 100 99 100 95 90 90 81 83 87 74 73 100 93 92 33 30 31 32 34 37 41 40 41 41 41 41 42 44 46 47 48 72 68 67 57 43 36
84 77 74 78 86 98 100 92 88 89 90 91 95 98 98 92 94 100 96 100 100 100 100 100 100 96 48 33 27 28 30 30 31 34 36 38 40 42 43 42 40 41 43 44 43 44 44 43 42 42 39 36 36 36
80 78 76 80 88 86 94 85 74 83 81 83 93 98 100 91 91 100 97 95 100 100 100 87 63 34 27 28 30 32 34 35 37 38 39 41 42 41 40 40 41 41 41 41 38 36 35 35 36 36 37 38 39 40

GFSWCAN_850_rhum_072.txt.gz
RH
91 91 87 83 86 88 91 93 93 86 86 90 98 99 96 92 77 77 73 89 91 97 75 63 61 74 76 64 82 82 95 86 93 91 71 63 64 57 52 46 52 59 69 75 62 65 67 46 51 60 66 63 50 50
89 86 87 97 99 99 96 96 95 93 91 93 99 100 99 97 94 87 94 85 97 97 72 85 80 73 73 73 100 99 97 96 68 75 64 92 73 78 57 58 39 56 46 57 45 50 54 55 56 56 57 58 59 58
86 92 99 99 99 100 100 98 95 96 95 94 96 98 99 99 98 99 82 86 91 98 94 84 71 61 65 68 68 100 82 74 97 94 89 86 85 62 65 57 62 54 49 67 52 63 61 57 58 60 63 63 64 64
96 98 99 99 95 96 96 94 98 88 92 99 97 97 99 99 99 98 99 89 94 87 81 62 57 66 38 65 68 78 89 82 89 93 90 95 85 60 79 57 60 50 48 41 79 84 88 69 67 66 68 70 70 70
99 99 100 95 96 97 96 93 97 99 94 93 93 94 99 99 99 99 99 97 96 67 75 68 59 52 63 65 70 83 85 84 94 93 84 82 78 73 61 58 91 60 68 71 98 68 84 74 75 72 74 77 77 78
99 100 97 88 89 90 89 92 84 89 93 93 98 92 99 99 99 99 99 99 92 93 90 100 92 58 64 63 68 76 87 96 99 99 84 71 61 82 87 86 92 59 65 70 67 67 80 81 83 86 84 84 81 83
99 99 100 100 97 90 94 99 87 92 98 93 98 96 100 99 100 98 97 85 78 92 99 94 74 73 69 77 80 80 85 98 100 99 97 78 68 63 82 100 96 86 65 68 67 73 77 88 87 89 88 89 93 95
97 99 99 96 100 99 100 98 94 96 98 90 99 100 100 100 100 99 87 83 81 100 98 99 74 86 73 80 89 89 99 99 98 98 83 74 61 68 97 84 78 76 72 74 70 74 83 85 82 83 85 85 92 100
100 98 99 99 99 99 100 100 94 98 98 100 100 100 99 99 99 96 89 90 100 98 96 98 92 98 81 80 97 97 98 100 99 99 89 75 96 94 92 81 83 83 82 77 74 82 79 84 83 83 86 89 92 96
99 96 98 99 100 100 99 99 99 100 100 100 100 98 99 98 99 99 100 100 99 99 98 100 94 99 84 82 96 98 98 93 100 90 84 92 92 73 69 74 81 82 80 81 81 84 87 88 100 96 100 100 100 100
100 96 94 99 99 99 99 100 100 100 100 99 99 99 96 100 99 99 99 99 98 100 76 79 99 92 95 92 97 80 99 86 84 86 91 91 86 79 76 77 84 88 87 88 94 100 100 99 99 100 100 100 100 99
100 99 99 100 99 100 100 100 100 99 98 99 97 99 99 99 99 98 94 99 86 70 84 86 83 87 99 98 95 89 89 93 97 84 83 91 87 77 80 86 89 96 98 100 100 100 100 100 100 100 100 100 100 98
97 100 99 99 100 100 99 100 100 91 94 93 84 97 98 97 100 96 82 77 92 93 99 97 97 93 99 92 94 88 97 94 77 93 89 90 82 81 92 94 97 100 100 100 100 100 100 99 96 99 99 99 97 96
86 100 100 100 100 100 100 98 97 97 93 89 80 88 92 85 86 90 94 94 99 99 100 96 98 90 91 89 100 81 93 86 92 92 90 89 92 96 98 99 98 96 95 98 99 99 100 100 100 100 99 98 96 95
98 98 100 98 97 98 100 99 99 71 74 70 66 84 81 88 91 96 99 97 99 99 100 93 86 79 84 91 84 84 86 82 85 89 90 92 98 98 99 98 96 94 94 96 99 100 100 99 99 98 97 96 96 96
96 98 93 90 91 84 94 92 73 56 77 80 85 84 91 88 92 94 98 97 99 99 99 83 86 86 88 83 84 90 91 89 92 90 93 95 98 97 98 95 92 92 94 97 100 100 100 99 98 96 96 94 94 94
97 93 80 60 69 86 54 78 74 79 76 78 85 97 94 88 93 96 100 98 98 99 99 89 84 92 71 82 81 82 90 90 91 97 98 97 96 98 95 95 95 98 100 100 100 100 100 100 100 100 100 100 99 88
69 73 96 97 94 55 71 78 79 72 79 93 86 96 98 98 98 99 96 97 97 77 71 78 62 86 90 88 87 90 92 96 95 97 99 100 99 97 97 98 97 99 100 100 100 99 96 98 98 100 96 91 94 99
79 55 52 88 66 55 71 73 68 74 90 95 95 98 98 98 96 95 96 90 77 72 68 63 73 83 86 86 88 90 92 93 96 100 99 95 96 96 96 98 96 96 96 96 97 100 96 93 94 90 87 87 92 99
64 49 47 64 67 68 70 72 71 73 86 89 92 90 91 96 98 97 84 72 67 68 72 76 85 94 91 97 98 98 96 95 94 96 99 100 94 96 99 99 97 98 100 100 99 93 89 91 94 90 90 96 100 100
61 61 73 75 75 70 67 69 72 74 82 88 93 85 92 92 92 86 78 74 74 78 80 94 96 100 98 98 98 98 98 98 97 95 96 97 96 100 100 97 99 97 96 97 92 93 94 97 96 100 100 100 96 98
68 74 76 70 72 73 74 71 72 75 81 79 77 78 84 86 82 77 72 76 87 97 95 94 96 97 100 98 100 99 97 88 90 92 91 94 98 98 99 97 92 98 97 98 99 99 100 100 98 100 100 97 100 99
70 78 81 80 78 77 85 93 77 83 79 72 70 69 77 73 71 66 74 81 95 98 97 97 100 100 100 100 96 96 93 92 94 96 96 94 96 96 95 95 97 97 95 95 94 100 100 81 91 96 94 100 100 98
46 51 94 88 75 83 87 72 63 65 68 64 63 76 76 71 64 64 77 84 96 97 96 98 98 96 98 95 90 90 91 93 95 97 88 84 86 88 90 92 99 100 98 96 99 100 100 100 83 100 98 98 99 81
63 79 92 85 74 72 71 72 67 66 73 66 69 73 75 76 70 71 77 87 98 96 96 99 97 98 97 97 96 95 88 85 87 94 91 91 92 89 92 91 95 84 90 100 100 100 100 91 100 100 100 100 100 96
83 90 81 74 73 67 64 76 73 70 69 74 73 70 74 67 70 82 77 89 98 96 98 98 94 90 85 84 88 92 96 92 90 96 95 95 96 99 96 91 93 100 98 83 100 100 100 100 100 100 100 100 100 98
80 82 77 78 74 71 74 71 66 68 72 76 74 73 68 74 80 81 98 98 98 98 99 98 98 93 97 100 99 89 57 50 74 67 47 36 35 38 62 92 100 92 80 62 100 100 100 100 100 100 100 100 100 100
77 81 82 84 81 75 76 72 73 75 72 64 60 75 75 72 84 96 100 100 94 97 100 100 100 100 100 100 93 49 30 31 38 50 67 83 82 53 41 34 34 34 38 50 50 49 93 100 100 100 100 100 100 100
80 78 74 83 71 75 78 77 76 79 88 77 70 74 78 95 100 100 100 98 100 100 100 100 99 88 86 100 99 99 98 86 100 74 88 95 100 100 83 50 75 59 55 85 100 95 85 66 71 79 69 67 84 94
84 79 74 74 77 82 91 96 92 96 95 96 95 97 96 99 98 96 99 100 100 99 100 100 100 100 100 98 66 45 29 28 29 48 100 100 93 63 53 72 57 61 50 76 79 91 100 99 86 100 100 100 100 100
80 77 72 73 81 90 94 95 96 98 94 94 90 90 93 100 100 99 100 100 100 100 100 100 100 100 96 99 100 100 93 43 27 28 30 34 38 51 41 41 40 40 45 52 54 68 65 50 72 91 100 89 62 50
78 75 71 78 86 97 98 94 90 91 95 91 92 97 100 93 94 100 100 100 99 100 100 100 100 78 47 30 26 28 28 28 28 30 33 36 37 37 37 37 38 40 42 43 48 55 52 42 41 43 45 50 46 42
81 79 78 79 84 78 91 85 73 86 80 83 92 96 99 96 92 100 99 97 100 100 100 91 77 42 26 26 28 28 30 32 33 34 33 32 31 33 35 37 37 36 35 34 36 39 42 46 47 48 50 53 55 57

GFSWCAN_850_rhum_075.txt.gz
RH
87 72 81 83 85 86 88 90 92 91 90 92 86 90 95 99 95 94 80 82 87 96 88 70 69 74 77 83 100 99 89 96 84 94 92 77 88 69 78 96 64 68 92 92 84 85 82 66 79 95 90 80 71 72
81 80 81 85 89 95 98 95 96 94 93 89 89 89 91 98 98 95 92 76 88 99 85 83 81 73 74 74 87 99 99 100 80 81 85 96 98 92 71 98 74 78 67 79 68 73 71 74 85 69 65 67 69 70
81 84 85 86 97 99 100 99 98 98 97 99 89 91 93 99 99 99 98 92 86 97 93 86 62 45 51 50 67 100 99 100 92 99 92 96 99 92 95 83 94 70 46 65 63 74 70 69 70 70 70 70 72 72
86 82 88 100 99 96 94 94 100 100 100 96 98 92 94 99 98 98 99 96 90 86 88 68 50 50 45 46 45 77 84 92 99 96 98 100 100 90 99 95 100 99 72 89 100 100 92 92 74 76 74 73 76 78
90 95 100 100 100 99 98 97 97 96 95 99 96 100 95 96 99 99 99 97 88 69 92 89 66 47 42 53 59 56 75 98 95 90 98 98 88 92 96 94 99 98 97 100 100 99 98 98 86 82 81 82 82 84
98 99 100 99 99 100 97 94 80 81 85 100 94 96 95 98 99 99 99 99 95 93 84 93 62 54 57 66 66 60 79 88 85 98 95 86 78 88 100 100 99 98 80 85 98 92 89 90 86 87 90 87 89 89
98 100 97 89 91 94 92 98 97 93 82 89 94 95 99 99 99 99 92 78 93 99 98 99 92 71 56 64 66 69 76 91 94 99 97 89 82 95 99 97 98 98 92 73 81 82 86 83 88 88 92 93 96 99
99 95 88 92 91 95 92 96 100 98 88 88 95 100 100 100 100 99 97 78 99 99 90 99 92 99 74 81 92 81 91 97 99 99 92 92 83 98 96 91 94 92 81 79 80 82 82 82 84 87 91 98 94 97
100 92 89 96 99 98 98 98 100 94 92 100 100 100 99 99 98 99 95 95 100 91 98 98 88 97 82 89 100 99 98 99 99 99 99 93 97 96 97 94 90 87 85 83 82 84 93 96 96 97 92 100 99 100
99 98 98 100 100 98 100 100 99 100 100 100 100 98 99 99 99 99 100 99 99 97 98 98 91 99 92 98 99 98 100 99 99 94 91 95 97 87 87 93 94 93 95 90 94 94 95 99 99 99 100 99 97 95
96 89 97 98 99 99 100 100 100 100 100 99 99 100 100 100 99 99 99 99 99 99 92 85 96 100 97 98 99 95 99 98 99 97 96 95 94 94 92 91 91 96 97 99 100 99 99 99 99 96 98 99 97 96
98 99 98 99 99 100 100 100 100 99 98 99 96 100 99 99 100 98 99 99 92 92 87 95 99 99 100 97 99 96 99 100 98 99 99 96 95 97 94 93 95 98 95 95 95 95 96 95 95 95 100 100 99 97
100 99 100 99 100 100 100 100 99 99 99 96 85 96 98 99 93 92 97 95 98 100 98 94 100 99 100 100 99 99 92 98 94 95 99 97 96 98 99 96 94 96 96 96 99 98 96 94 93 92 96 99 97 97
99 100 100 100 100 100 100 100 97 87 71 80 77 94 95 88 91 98 99 99 100 100 93 88 98 92 89 92 100 85 99 97 98 97 96 97 100 95 93 94 89 95 94 92 93 93 92 90 92 93 94 96 94 94
99 100 100 99 100 100 98 88 75 63 74 74 70 95 94 90 93 93 96 94 99 100 94 85 85 79 91 86 79 85 84 97 98 99 98 100 100 94 91 91 96 100 98 98 96 93 94 92 91 94 96 94 92 93
100 98 99 100 99 100 92 85 69 48 75 77 89 92 95 93 97 98 95 96 100 100 97 80 81 82 85 91 89 99 96 99 98 99 100 91 91 91 96 97 97 98 98 99 98 96 95 93 92 92 94 93 90 83
100 88 66 62 70 82 93 95 74 74 77 81 96 94 96 93 99 97 97 97 98 99 100 93 84 94 86 91 95 98 98 97 98 100 97 89 91 93 93 94 94 96 97 98 98 92 88 90 92 89 79 72 70 67
95 91 98 99 95 92 75 81 70 73 93 94 93 98 95 98 97 97 98 92 96 75 72 87 66 89 98 96 99 98 97 99 92 92 90 91 94 97 97 97 97 95 94 95 95 100 100 98 98 94 88 93 96 99
88 99 100 99 74 66 72 74 68 88 94 90 96 93 94 97 98 97 96 82 69 67 64 65 88 98 98 97 95 100 97 96 100 100 98 97 95 92 93 94 97 98 100 99 98 92 94 95 93 94 93 100 100 100
79 70 76 96 64 69 73 73 74 82 95 96 95 95 95 96 96 96 88 84 66 72 84 95 97 99 98 97 89 90 88 88 88 94 94 97 99 100 100 97 91 91 88 89 88 98 99 98 89 80 87 98 99 98
60 74 76 76 69 69 70 73 78 86 94 94 96 93 96 90 94 84 78 73 75 94 96 97 100 98 97 97 96 97 92 85 81 80 91 97 89 87 87 89 98 100 100 100 99 91 82 89 95 93 92 95 91 84
72 75 74 71 75 76 75 75 83 80 88 92 94 86 90 93 87 76 71 81 93 95 95 99 99 98 95 93 94 91 96 96 95 91 87 91 98 99 99 99 98 89 88 90 96 98 97 96 91 97 100 96 92 91
81 83 80 77 76 76 90 93 87 89 92 83 76 86 92 79 73 70 85 92 95 99 96 91 90 86 90 96 94 96 92 86 90 94 92 90 90 90 88 90 91 98 100 96 86 95 96 85 82 81 86 98 100 100
57 58 94 82 72 96 84 72 65 71 81 81 83 93 88 73 65 72 96 95 99 93 84 86 85 90 93 91 91 92 89 83 89 92 92 89 84 85 82 75 66 63 82 82 84 86 87 85 85 100 100 89 99 98
57 81 84 89 76 81 87 85 81 83 87 82 85 92 89 80 91 93 94 97 95 91 95 92 93 98 91 89 87 90 93 95 87 84 91 92 96 92 93 93 91 85 78 83 100 100 96 94 87 91 94 92 91 91
94 85 88 87 82 83 85 90 87 87 89 89 87 71 79 91 90 98 94 95 96 87 96 96 85 88 92 86 89 83 89 95 95 76 57 61 80 91 95 97 100 94 88 78 61 88 100 100 100 99 96 98 100 100
92 92 82 82 88 78 86 73 67 86 88 91 94 94 88 92 99 97 98 84 81 92 97 95 98 88 86 94 90 76 66 84 88 77 30 30 30 28 45 76 89 87 74 48 43 56 74 90 96 98 100 100 100 100
84 90 96 88 82 79 90 91 91 93 90 73 72 93 94 93 99 97 97 100 93 95 90 95 95 89 82 76 61 34 29 37 38 53 67 74 72 64 55 35 34 37 37 49 56 58 60 57 63 68 79 90 96 97
87 79 68 88 76 82 94 96 96 92 96 96 93 97 93 97 99 98 100 95 89 85 86 89 95 88 76 70 65 62 66 86 100 72 97 100 99 90 79 50 41 41 54 51 60 74 79 71 68 71 82 86 88 90
86 76 76 79 92 96 97 95 95 92 86 87 94 99 99 99 100 94 90 91 90 87 86 82 79 77 73 61 43 34 30 35 37 46 78 92 90 70 47 47 43 42 40 39 43 50 52 62 62 78 96 100 99 92
82 74 74 82 96 98 96 96 96 96 98 97 89 91 97 100 98 99 100 99 94 99 100 100 100 100 92 87 65 53 57 31 25 27 28 30 32 36 36 35 36 35 36 38 39 40 40 42 41 42 47 52 52 48
79 75 80 95 96 96 97 85 91 99 97 92 92 86 88 90 98 98 100 98 99 98 100 97 89 86 77 54 41 29 24 26 28 31 32 30 32 31 31 32 34 34 34 34 34 35 38 42 46 49 52 55 56 58
84 80 80 81 91 88 94 87 83 93 94 95 96 97 96 95 100 98 100 100 99 94 93 90 84 50 25 24 26 27 28 30 30 29 28 29 31 32 33 33 32 34 38 42 46 48 49 50 52 54 55 55 58 62